Location: Bourg-d�Oueil
(42.8588°N, 0.4991°E)
Time: 19:14:03
(UTC+00:00)

H-2A R/B - Pass Details

Date: 16 June 2021
Orbit: 574 x 597 km, 98.2° (Epoch: 01 August)

Event Time Altitude Azimuth Distance (km) Brightness Sun altitude
Rises 22:01:53 0° 12° (NNE) 2,796 7.7 -18.5°
Reaches altitude 10° 22:04:02 10° 12° (NNE) 1,891 6.8 -18.7°
Maximum altitude 22:08:08 84° 286° (WNW) 583 3.4 -19.0°
Enters shadow 22:09:42 37° 199° (SSW) 900 4.0 -19.1°
